Weather History for Green Bay, WI

Change the Weather History Date:

Saturday, January 19, 2013

  Actual Average Record
Temperature  
Mean Temperature 29 °F 16 °F  
Max Temperature 43 °F 24 °F 44 °F (1933)
Min Temperature 14 °F 9 °F -28 °F (1994)
Degree Days  
Heating Degree Days 36 49  
Month to date heating degree days 817 921  
Since 1 July heating degree days 3568 4011  
Cooling Degree Days 0 0  
Month to date cooling degree days 0 0  
Year to date cooling degree days 0 0  
Moisture  
Dew Point 25 °F    
Average Humidity 78    
Maximum Humidity 92    
Minimum Humidity 64    
Precipitation  
Precipitation 0.01 in 0.03 in 0.66 in (1907)
Month to date precipitation 0.55 0.72  
Year to date precipitation 0.55 0.72  
Snow  
Snow 0.20 in 0.40 in 4.10 in (1988)
Month to date snowfall 1.2 7.8  
Since 1 July snowfall 25.5 25.1  
Snow Depth T in    
Sea Level Pressure  
Sea Level Pressure 29.71 in    
Wind  
Wind Speed 13 mph (WSW)    
Max Wind Speed 40 mph    
Max Gust Speed 49 mph    
Visibility 9 miles    
Events Rain , Snow    
T = Trace of Precipitation, MM = Missing Value Source: NWS Daily Summary

Daily Weather History Graph

Daily Weather History Graph

Search for Another Location

Airport:

Trip Planner

Search our weather history database for the weather conditions in past years. The results will help you decide how hot, cold, wet, or windy it might be!

Date:

Astronomy

Jan. 19, 2013 Rise Set
Actual Time 7:22 AM CST 4:44 PM CST
Civil Twilight 6:50 AM CST 5:16 PM CST
Nautical Twilight 6:15 AM CST 5:52 PM CST
Astronomical Twilight 5:40 AM CST 6:26 PM CST
Moon 11:13 AM CST (1/19) 12:53 AM CST (1/19)
Length of Visible Light 10h 25m
Length of Day
9h 21m
First Quarter, 57% of the Moon is Illuminated
Jan 19
First Quarter
Jan 26
Full
Feb 3
Last Quarter
Feb 10
New
Feb 17
First Quarter

Hourly Weather History & Observations

Time (CST) Temp. Windchill Dew Point Humidity Pressure Visibility Wind Dir Wind Speed Gust Speed Precip Events Conditions
12:53 AM 35.1 °F 29.3 °F 28.9 °F 78% 29.78 in 10.0 mi SW 6.9 mph - N/A   Clear
1:53 AM 33.1 °F 27.7 °F 28.0 °F 82% 29.80 in 10.0 mi SW 5.8 mph - N/A   Clear
2:53 AM 33.1 °F 27.7 °F 28.0 °F 82% 29.82 in 10.0 mi WSW 5.8 mph - N/A   Partly Cloudy
3:53 AM 32.0 °F 27.5 °F 27.0 °F 82% 29.82 in 10.0 mi SW 4.6 mph - N/A   Clear
4:53 AM 32.0 °F 26.4 °F 28.0 °F 85% 29.83 in 9.0 mi SSW 5.8 mph - N/A   Mostly Cloudy
5:53 AM 32.0 °F 27.5 °F 28.0 °F 85% 29.82 in 8.0 mi SSW 4.6 mph - N/A   Overcast
6:53 AM 32.0 °F - 28.0 °F 85% 29.79 in 8.0 mi Calm Calm - N/A   Overcast
7:53 AM 30.9 °F 26.2 °F 28.0 °F 89% 29.78 in 6.0 mi SSE 4.6 mph - N/A   Overcast
8:53 AM 33.1 °F 28.7 °F 28.9 °F 85% 29.78 in 7.0 mi SSE 4.6 mph - N/A   Overcast
9:53 AM 34.0 °F 27.2 °F 30.9 °F 89% 29.75 in 4.0 mi South 8.1 mph - 0.00 in Rain Light Rain
10:53 AM 36.0 °F 29.0 °F 32.0 °F 86% 29.70 in 8.0 mi SSW 9.2 mph - 0.01 in   Overcast
11:53 AM 39.0 °F 31.8 °F 33.1 °F 79% 29.65 in 10.0 mi SW 11.5 mph 21.9 mph N/A   Clear
12:53 PM 39.9 °F 33.4 °F 33.1 °F 77% 29.60 in 10.0 mi SSW 10.4 mph - N/A   Clear
1:53 PM 43.0 °F 36.8 °F 33.1 °F 68% 29.58 in 10.0 mi WSW 11.5 mph - N/A   Partly Cloudy
2:53 PM 42.1 °F 36.6 °F 32.0 °F 67% 29.56 in 10.0 mi SW 9.2 mph - N/A   Overcast
3:53 PM 43.0 °F 37.2 °F 32.0 °F 65% 29.55 in 10.0 mi WSW 10.4 mph - N/A   Mostly Cloudy
4:53 PM 41.0 °F 34.3 °F 30.9 °F 67% 29.57 in 10.0 mi West 11.5 mph - N/A   Overcast
5:53 PM 37.9 °F 27.3 °F 27.0 °F 65% 29.60 in 10.0 mi West 21.9 mph 35.7 mph 0.00 in   Overcast
6:53 PM 36.0 °F 26.0 °F 27.0 °F 70% 29.57 in 10.0 mi West 17.3 mph - N/A   Mostly Cloudy
7:53 PM 35.1 °F 22.2 °F 25.0 °F 67% 29.56 in 10.0 mi West 27.6 mph 36.8 mph N/A   Mostly Cloudy
8:53 PM 27.0 °F 11.0 °F 16.0 °F 63% 29.65 in 10.0 mi West 28.8 mph 48.3 mph 0.00 in Snow Light Snow
9:21 PM 25.0 °F 9.5 °F 15.1 °F 66% 29.66 in 5.0 mi WNW 24.2 mph 41.4 mph 0.00 in Snow Light Snow
9:53 PM 21.0 °F 3.3 °F 15.1 °F 78% 29.73 in 5.0 mi WNW 27.6 mph 40.3 mph 0.00 in Snow Light Snow
10:06 PM 21.0 °F 4.6 °F 10.9 °F 65% 29.71 in 9.0 mi WNW 23.0 mph 40.3 mph 0.00 in   Overcast
10:53 PM 17.1 °F -3.8 °F 3.9 °F 56% 29.80 in 10.0 mi WNW 34.5 mph 48.3 mph 0.00 in   Mostly Cloudy
11:53 PM 14.0 °F -7.1 °F 1.0 °F 56% 29.88 in 10.0 mi WNW 31.1 mph 42.6 mph N/A   Mostly Cloudy